When you browse on this site, cookies collect data to enhance your experience and personalize the content and advertising you see.
Visit our Privacy Policy to learn more. By continuing to use the site, you agree to this use of cookies and data.
  • In Hungary
  • List of Countries
  • For 7 days
  • Water Temperature
  • Weather Map
  • News
  • Weather Widgets
  • user-avatar
    Login

    Hourly Weather Bareilly

    Today, 28 February, Friday

    Time Temperature Precipitation Wind Pressure Humidity
    00:00 +17°C° 0 mm 2 mps 745 mmHg 74%
    01:00 +16°C° 0 mm 2 mps 745 mmHg 76%
    02:00 +16°C° 0 mm 2 mps 744 mmHg 78%
    03:00 +16°C° 0 mm 2 mps 744 mmHg 80%
    04:00 +15°C° 0 mm 1 mps 744 mmHg 81%
    05:00 +16°C° 0 mm 1 mps 744 mmHg 88%
    06:00 +17°C° 0 mm 2 mps 744 mmHg 83%
    07:00 +18°C° 0 mm 2 mps 745 mmHg 78%
    08:00 +19°C° 0 mm 2 mps 745 mmHg 73%
    09:00 +21°C° 0 mm 2 mps 746 mmHg 66%
    10:00 +24°C° 0 mm 3 mps 746 mmHg 60%
    11:00 +25°C° 0 mm 3 mps 746 mmHg 55%
    12:00 +26°C° 0 mm 3 mps 745 mmHg 52%
    13:00 +27°C° 0 mm 2 mps 745 mmHg 50%
    14:00 +27°C° 0 mm 2 mps 744 mmHg 47%
    15:00 +27°C° 0 mm 2 mps 744 mmHg 50%
    16:00 +26°C° 0 mm 2 mps 743 mmHg 54%
    17:00 +25°C° 0 mm 2 mps 743 mmHg 57%
    18:00 +24°C° 0 mm 2 mps 744 mmHg 59%
    19:00 +23°C° 0 mm 2 mps 744 mmHg 62%
    20:00 +21°C° 0 mm 2 mps 745 mmHg 64%
    21:00 +20°C° 0 mm 2 mps 745 mmHg 66%
    22:00 +20°C° 0 mm 2 mps 744 mmHg 67%
    23:00 +19°C° 0 mm 2 mps 744 mmHg 69%

    Tomorrow, 29 February, Saturday

    Time Temperature Precipitation Wind Pressure Humidity
    00:00 +18°C° 0.1 mm 2 mps 744 mmHg 72%
    01:00 +18°C° 0.1 mm 2 mps 743 mmHg 76%
    02:00 +17°C° 0.1 mm 2 mps 743 mmHg 79%
    03:00 +17°C° 0.4 mm 2 mps 743 mmHg 81%
    04:00 +17°C° 0.4 mm 2 mps 743 mmHg 83%
    05:00 +17°C° 0.4 mm 2 mps 742 mmHg 85%
    06:00 +18°C° 0.1 mm 2 mps 743 mmHg 81%
    07:00 +19°C° 0.1 mm 2 mps 743 mmHg 77%
    08:00 +20°C° 0.1 mm 2 mps 744 mmHg 73%
    09:00 +22°C° 0 mm 1 mps 744 mmHg 66%
    10:00 +24°C° 0 mm 1 mps 744 mmHg 58%
    11:00 +26°C° 0 mm 1 mps 744 mmHg 51%
    12:00 +27°C° 0 mm 1 mps 744 mmHg 48%
    13:00 +28°C° 0 mm 1 mps 743 mmHg 44%
    14:00 +29°C° 0 mm 1 mps 742 mmHg 41%
    15:00 +28°C° 0 mm 1 mps 742 mmHg 45%
    16:00 +27°C° 0 mm 1 mps 741 mmHg 48%
    17:00 +27°C° 0 mm 2 mps 741 mmHg 52%
    18:00 +25°C° 0 mm 2 mps 742 mmHg 53%
    19:00 +24°C° 0 mm 2 mps 742 mmHg 55%
    20:00 +23°C° 0 mm 2 mps 743 mmHg 57%
    21:00 +20°C° 2.1 mm 3 mps 743 mmHg 68%
    22:00 +19°C° 2.1 mm 3 mps 744 mmHg 79%
    23:00 +17°C° 2.1 mm 4 mps 745 mmHg 90%

    Day after tomorrow, 1 March, Sunday

    Time Temperature Precipitation Wind Pressure Humidity
    00:00 +17°C° 0.9 mm 3 mps 744 mmHg 87%
    01:00 +18°C° 0.9 mm 3 mps 744 mmHg 83%
    02:00 +18°C° 0.9 mm 2 mps 744 mmHg 80%
    03:00 +17°C° 0 mm 2 mps 743 mmHg 81%
    04:00 +17°C° 0 mm 2 mps 743 mmHg 83%
    05:00 +16°C° 0 mm 1 mps 742 mmHg 84%
    06:00 +19°C° 0 mm 1 mps 743 mmHg 80%
    07:00 +19°C° 0 mm 2 mps 744 mmHg 76%
    08:00 +20°C° 0 mm 2 mps 744 mmHg 71%
    09:00 +23°C° 0 mm 2 mps 744 mmHg 63%
    10:00 +26°C° 0 mm 1 mps 744 mmHg 54%
    11:00 +28°C° 0 mm 1 mps 744 mmHg 45%
    12:00 +29°C° 0 mm 1 mps 744 mmHg 43%
    13:00 +29°C° 0 mm 1 mps 743 mmHg 40%
    14:00 +30°C° 0 mm 1 mps 742 mmHg 37%
    15:00 +29°C° 0 mm 1 mps 742 mmHg 41%
    16:00 +28°C° 0 mm 1 mps 741 mmHg 46%
    17:00 +27°C° 0 mm 1 mps 741 mmHg 50%
    18:00 +26°C° 0 mm 1 mps 741 mmHg 52%
    19:00 +25°C° 0 mm 1 mps 742 mmHg 53%
    20:00 +23°C° 0 mm 1 mps 742 mmHg 55%
    21:00 +23°C° 0.1 mm 2 mps 742 mmHg 58%
    22:00 +22°C° 0.1 mm 3 mps 742 mmHg 60%
    23:00 +21°C° 0.1 mm 3 mps 743 mmHg 63%

    2 March, Monday

    Time Temperature Precipitation Wind Pressure Humidity
    00:00 +20°C° 0 mm 3 mps 742 mmHg 66%
    01:00 +19°C° 0 mm 2 mps 742 mmHg 69%
    02:00 +19°C° 0 mm 2 mps 742 mmHg 73%
    03:00 +18°C° 0 mm 2 mps 742 mmHg 74%
    04:00 +19°C° 0 mm 1 mps 741 mmHg 76%
    05:00 +18°C° 0 mm 1 mps 741 mmHg 77%
    06:00 +19°C° 0 mm 1 mps 742 mmHg 75%
    07:00 +19°C° 0 mm 2 mps 742 mmHg 72%
    08:00 +21°C° 0 mm 2 mps 743 mmHg 69%
    09:00 +24°C° 0 mm 2 mps 743 mmHg 61%
    10:00 +26°C° 0 mm 2 mps 743 mmHg 53%
    11:00 +28°C° 0 mm 2 mps 743 mmHg 45%
    12:00 +29°C° 0 mm 2 mps 743 mmHg 40%
    13:00 +30°C° 0 mm 2 mps 742 mmHg 35%
    14:00 +31°C° 0 mm 2 mps 741 mmHg 30%
    15:00 +30°C° 0 mm 2 mps 741 mmHg 33%
    16:00 +29°C° 0 mm 2 mps 740 mmHg 37%
    17:00 +27°C° 0 mm 2 mps 740 mmHg 40%
    18:00 +26°C° 0 mm 2 mps 741 mmHg 42%
    19:00 +24°C° 0 mm 2 mps 741 mmHg 44%
    20:00 +23°C° 0 mm 2 mps 741 mmHg 46%
    21:00 +21°C° 0 mm 2 mps 741 mmHg 47%
    22:00 +21°C° 0 mm 2 mps 741 mmHg 48%
    23:00 +20°C° 0 mm 2 mps 741 mmHg 49%

    3 March, Tuesday

    Time Temperature Precipitation Wind Pressure Humidity
    00:00 +20°C° 0 mm 2 mps 741 mmHg 49%
    01:00 +19°C° 0 mm 2 mps 741 mmHg 49%
    02:00 +19°C° 0 mm 2 mps 741 mmHg 49%
    03:00 +18°C° 0 mm 2 mps 741 mmHg 50%
    04:00 +18°C° 0 mm 2 mps 741 mmHg 50%
    05:00 +17°C° 0 mm 2 mps 741 mmHg 51%
    06:00 +19°C° 0 mm 2 mps 741 mmHg 50%
    07:00 +20°C° 0 mm 2 mps 742 mmHg 50%
    08:00 +21°C° 0 mm 2 mps 742 mmHg 50%
    09:00 +24°C° 0 mm 2 mps 743 mmHg 45%
    10:00 +26°C° 0 mm 2 mps 743 mmHg 41%
    11:00 +28°C° 0 mm 2 mps 743 mmHg 36%
    12:00 +29°C° 0 mm 3 mps 742 mmHg 34%
    13:00 +30°C° 0 mm 3 mps 741 mmHg 32%
    14:00 +32°C° 0 mm 4 mps 740 mmHg 30%
    15:00 +30°C° 0 mm 3 mps 740 mmHg 34%
    16:00 +28°C° 0 mm 3 mps 740 mmHg 39%
    17:00 +27°C° 0 mm 3 mps 739 mmHg 43%
    18:00 +26°C° 0 mm 2 mps 740 mmHg 43%
    19:00 +24°C° 0 mm 2 mps 740 mmHg 43%
    20:00 +23°C° 0 mm 1 mps 740 mmHg 42%
    21:00 +22°C° 0 mm 1 mps 740 mmHg 43%
    22:00 +21°C° 0 mm 2 mps 740 mmHg 44%
    23:00 +20°C° 0 mm 2 mps 740 mmHg 44%

    4 March, Wednesday

    Time Temperature Precipitation Wind Pressure Humidity
    00:00 +20°C° 0 mm 2 mps 740 mmHg 45%
    01:00 +19°C° 0 mm 2 mps 740 mmHg 46%
    02:00 +19°C° 0 mm 2 mps 740 mmHg 46%
    03:00 +19°C° 0 mm 1 mps 739 mmHg 47%
    04:00 +19°C° 0 mm 1 mps 739 mmHg 48%
    05:00 +18°C° 0 mm 1 mps 739 mmHg 49%
    06:00 +19°C° 0 mm 1 mps 740 mmHg 48%
    07:00 +21°C° 0 mm 1 mps 741 mmHg 47%
    08:00 +22°C° 0 mm 1 mps 741 mmHg 47%
    09:00 +24°C° 0 mm 1 mps 742 mmHg 42%
    10:00 +26°C° 0 mm 1 mps 742 mmHg 38%
    11:00 +28°C° 0 mm 1 mps 742 mmHg 33%
    12:00 +29°C° 0 mm 1 mps 741 mmHg 31%
    13:00 +30°C° 0 mm 2 mps 741 mmHg 29%
    14:00 +31°C° 0 mm 2 mps 740 mmHg 27%
    15:00 +30°C° 0 mm 2 mps 740 mmHg 31%
    16:00 +28°C° 0 mm 2 mps 739 mmHg 35%
    17:00 +27°C° 0 mm 2 mps 739 mmHg 39%
    18:00 +26°C° 0 mm 1 mps 740 mmHg 38%
    19:00 +25°C° 0 mm 1 mps 740 mmHg 38%
    20:00 +21°C° 0 mm 0 mps 741 mmHg 37%
    21:00 +23°C° 0 mm 1 mps 741 mmHg 38%
    22:00 +21°C° 0 mm 2 mps 741 mmHg 39%
    23:00 +21°C° 0 mm 2 mps 741 mmHg 39%
    Show more